owner,sensor,date,latitude,longitude,vertical_datum,sea_water_temperature,qcFlag 
COMPS,ioos:station:USF.COMPS:C10:1,2017-08-01T00:05:00Z,27.1690,-82.9260,-1.0,30.46,2 
COMPS,ioos:station:USF.COMPS:C10:1,2017-08-01T00:35:00Z,27.1690,-82.9260,-1.0,30.45,2 
COMPS,ioos:station:USF.COMPS:C10:1,2017-08-01T01:05:00Z,27.1690,-82.9260,-1.0,30.46,2 
COMPS,ioos:station:USF.COMPS:C10:1,2017-08-01T01:35:00Z,27.1690,-82.9260,-1.0,30.44,2 
COMPS,ioos:station:USF.COMPS:C10:1,2017-08-01T02:05:00Z,27.1690,-82.9260,-1.0,30.41,2 
COMPS,ioos:station:USF.COMPS:C10:1,2017-08-01T02:35:00Z,27.1690,-82.9260,-1.0,30.42,2 
COMPS,ioos:station:USF.COMPS:C10:1,2017-08-01T03:05:00Z,27.1690,-82.9260,-1.0,30.43,2 
COMPS,ioos:station:USF.COMPS:C10:1,2017-08-01T03:35:00Z,27.1690,-82.9260,-1.0,30.41,2 
COMPS,ioos:station:USF.COMPS:C10:1,2017-08-01T04:05:00Z,27.1690,-82.9260,-1.0,30.4,2 
COMPS,ioos:station:USF.COMPS:C10:1,2017-08-01T04:35:00Z,27.1690,-82.9260,-1.0,30.41,2 
COMPS,ioos:station:USF.COMPS:C10:1,2017-08-01T05:05:00Z,27.1690,-82.9260,-1.0,30.39,2 
COMPS,ioos:station:USF.COMPS:C10:1,2017-08-01T05:35:00Z,27.1690,-82.9260,-1.0,30.4,2 
COMPS,ioos:station:USF.COMPS:C10:1,2017-08-01T06:05:00Z,27.1690,-82.9260,-1.0,30.38,2 
COMPS,ioos:station:USF.COMPS:C10:1,2017-08-01T06:35:00Z,27.1690,-82.9260,-1.0,30.38,2 
COMPS,ioos:station:USF.COMPS:C10:1,2017-08-01T07:05:00Z,27.1690,-82.9260,-1.0,30.37,2 
COMPS,ioos:station:USF.COMPS:C10:1,2017-08-01T07:35:00Z,27.1690,-82.9260,-1.0,30.36,2 
COMPS,ioos:station:USF.COMPS:C10:1,2017-08-01T09:05:00Z,27.1690,-82.9260,-1.0,30.37,2 
COMPS,ioos:station:USF.COMPS:C10:1,2017-08-01T09:35:00Z,27.1690,-82.9260,-1.0,30.36,2 
COMPS,ioos:station:USF.COMPS:C10:1,2017-08-01T10:05:00Z,27.1690,-82.9260,-1.0,30.35,2 
COMPS,ioos:station:USF.COMPS:C10:1,2017-08-01T10:35:00Z,27.1690,-82.9260,-1.0,30.35,2 
COMPS,ioos:station:USF.COMPS:C10:1,2017-08-01T11:05:00Z,27.1690,-82.9260,-1.0,30.35,2 
COMPS,ioos:station:USF.COMPS:C10:1,2017-08-01T11:35:00Z,27.1690,-82.9260,-1.0,30.36,2 
COMPS,ioos:station:USF.COMPS:C10:1,2017-08-01T12:05:00Z,27.1690,-82.9260,-1.0,30.35,2 
COMPS,ioos:station:USF.COMPS:C10:1,2017-08-01T12:35:00Z,27.1690,-82.9260,-1.0,30.35,2 
COMPS,ioos:station:USF.COMPS:C10:1,2017-08-01T13:05:00Z,27.1690,-82.9260,-1.0,30.36,2 
COMPS,ioos:station:USF.COMPS:C10:1,2017-08-01T13:35:00Z,27.1690,-82.9260,-1.0,30.36,2 
COMPS,ioos:station:USF.COMPS:C10:1,2017-08-01T14:05:00Z,27.1690,-82.9260,-1.0,30.38,2 
COMPS,ioos:station:USF.COMPS:C10:1,2017-08-01T14:35:00Z,27.1690,-82.9260,-1.0,30.4,2 
COMPS,ioos:station:USF.COMPS:C10:1,2017-08-01T15:05:00Z,27.1690,-82.9260,-1.0,30.45,2 
COMPS,ioos:station:USF.COMPS:C10:1,2017-08-01T15:35:00Z,27.1690,-82.9260,-1.0,30.55,2 
COMPS,ioos:station:USF.COMPS:C10:1,2017-08-01T16:05:00Z,27.1690,-82.9260,-1.0,30.63,2 
COMPS,ioos:station:USF.COMPS:C10:1,2017-08-01T16:35:00Z,27.1690,-82.9260,-1.0,30.81,2 
COMPS,ioos:station:USF.COMPS:C10:1,2017-08-01T17:05:00Z,27.1690,-82.9260,-1.0,30.8,2 
COMPS,ioos:station:USF.COMPS:C10:1,2017-08-01T17:35:00Z,27.1690,-82.9260,-1.0,31.43,2 
COMPS,ioos:station:USF.COMPS:C10:1,2017-08-01T18:05:00Z,27.1690,-82.9260,-1.0,31.35,2 
COMPS,ioos:station:USF.COMPS:C10:1,2017-08-01T18:35:00Z,27.1690,-82.9260,-1.0,31.45,2 
COMPS,ioos:station:USF.COMPS:C10:1,2017-08-01T19:05:00Z,27.1690,-82.9260,-1.0,31.69,2 
COMPS,ioos:station:USF.COMPS:C10:1,2017-08-01T19:35:00Z,27.1690,-82.9260,-1.0,31.44,2 
COMPS,ioos:station:USF.COMPS:C10:1,2017-08-01T20:05:00Z,27.1690,-82.9260,-1.0,32.01,2 
COMPS,ioos:station:USF.COMPS:C10:1,2017-08-01T20:35:00Z,27.1690,-82.9260,-1.0,32.54,2 
COMPS,ioos:station:USF.COMPS:C10:1,2017-08-01T21:05:00Z,27.1690,-82.9260,-1.0,31.95,2 
COMPS,ioos:station:USF.COMPS:C10:1,2017-08-01T21:35:00Z,27.1690,-82.9260,-1.0,31.04,2 
COMPS,ioos:station:USF.COMPS:C10:1,2017-08-01T22:05:00Z,27.1690,-82.9260,-1.0,30.77,2 
COMPS,ioos:station:USF.COMPS:C10:1,2017-08-01T22:35:00Z,27.1690,-82.9260,-1.0,30.7,2 
COMPS,ioos:station:USF.COMPS:C10:1,2017-08-01T23:05:00Z,27.1690,-82.9260,-1.0,30.55,2 
COMPS,ioos:station:USF.COMPS:C10:1,2017-08-01T23:35:00Z,27.1690,-82.9260,-1.0,30.58,2 
COMPS,ioos:station:USF.COMPS:C10:1,2017-08-02T00:05:00Z,27.1690,-82.9260,-1.0,30.68,2 
COMPS,ioos:station:USF.COMPS:C10:1,2017-08-02T00:35:00Z,27.1690,-82.9260,-1.0,30.63,2 
COMPS,ioos:station:USF.COMPS:C10:1,2017-08-02T01:05:00Z,27.1690,-82.9260,-1.0,30.56,2 
COMPS,ioos:station:USF.COMPS:C10:1,2017-08-02T01:35:00Z,27.1690,-82.9260,-1.0,30.5,2 
COMPS,ioos:station:USF.COMPS:C10:1,2017-08-02T02:05:00Z,27.1690,-82.9260,-1.0,30.48,2 
COMPS,ioos:station:USF.COMPS:C10:1,2017-08-02T02:35:00Z,27.1690,-82.9260,-1.0,30.47,2 
COMPS,ioos:station:USF.COMPS:C10:1,2017-08-02T03:05:00Z,27.1690,-82.9260,-1.0,30.45,2 
COMPS,ioos:station:USF.COMPS:C10:1,2017-08-02T03:35:00Z,27.1690,-82.9260,-1.0,30.45,2 
COMPS,ioos:station:USF.COMPS:C10:1,2017-08-02T04:05:00Z,27.1690,-82.9260,-1.0,30.44,2 
COMPS,ioos:station:USF.COMPS:C10:1,2017-08-02T04:35:00Z,27.1690,-82.9260,-1.0,30.44,2 
COMPS,ioos:station:USF.COMPS:C10:1,2017-08-02T05:05:00Z,27.1690,-82.9260,-1.0,30.41,2 
COMPS,ioos:station:USF.COMPS:C10:1,2017-08-02T05:35:00Z,27.1690,-82.9260,-1.0,30.4,2 
COMPS,ioos:station:USF.COMPS:C10:1,2017-08-02T06:05:00Z,27.1690,-82.9260,-1.0,30.39,2 
COMPS,ioos:station:USF.COMPS:C10:1,2017-08-02T06:35:00Z,27.1690,-82.9260,-1.0,30.37,2 
COMPS,ioos:station:USF.COMPS:C10:1,2017-08-02T07:05:00Z,27.1690,-82.9260,-1.0,30.36,2 
COMPS,ioos:station:USF.COMPS:C10:1,2017-08-02T07:35:00Z,27.1690,-82.9260,-1.0,30.37,2 
COMPS,ioos:station:USF.COMPS:C10:1,2017-08-02T08:05:00Z,27.1690,-82.9260,-1.0,30.34,2 
COMPS,ioos:station:USF.COMPS:C10:1,2017-08-02T08:35:00Z,27.1690,-82.9260,-1.0,30.34,2 
COMPS,ioos:station:USF.COMPS:C10:1,2017-08-02T09:05:00Z,27.1690,-82.9260,-1.0,30.34,2 
COMPS,ioos:station:USF.COMPS:C10:1,2017-08-02T09:35:00Z,27.1690,-82.9260,-1.0,30.33,2 
COMPS,ioos:station:USF.COMPS:C10:1,2017-08-02T10:05:00Z,27.1690,-82.9260,-1.0,30.32,2 
COMPS,ioos:station:USF.COMPS:C10:1,2017-08-02T10:35:00Z,27.1690,-82.9260,-1.0,30.33,2 
COMPS,ioos:station:USF.COMPS:C10:1,2017-08-02T11:05:00Z,27.1690,-82.9260,-1.0,30.32,2 
COMPS,ioos:station:USF.COMPS:C10:1,2017-08-02T11:35:00Z,27.1690,-82.9260,-1.0,30.3,2 
COMPS,ioos:station:USF.COMPS:C10:1,2017-08-02T12:05:00Z,27.1690,-82.9260,-1.0,30.31,2 
COMPS,ioos:station:USF.COMPS:C10:1,2017-08-02T12:35:00Z,27.1690,-82.9260,-1.0,30.3,2 
COMPS,ioos:station:USF.COMPS:C10:1,2017-08-02T13:05:00Z,27.1690,-82.9260,-1.0,30.3,2 
COMPS,ioos:station:USF.COMPS:C10:1,2017-08-02T13:35:00Z,27.1690,-82.9260,-1.0,30.31,2 
COMPS,ioos:station:USF.COMPS:C10:1,2017-08-02T14:05:00Z,27.1690,-82.9260,-1.0,30.31,2 
COMPS,ioos:station:USF.COMPS:C10:1,2017-08-02T14:35:00Z,27.1690,-82.9260,-1.0,30.32,2 
COMPS,ioos:station:USF.COMPS:C10:1,2017-08-02T15:05:00Z,27.1690,-82.9260,-1.0,30.33,2 
COMPS,ioos:station:USF.COMPS:C10:1,2017-08-02T15:35:00Z,27.1690,-82.9260,-1.0,30.34,2 
COMPS,ioos:station:USF.COMPS:C10:1,2017-08-02T16:05:00Z,27.1690,-82.9260,-1.0,30.35,2 
COMPS,ioos:station:USF.COMPS:C10:1,2017-08-02T16:35:00Z,27.1690,-82.9260,-1.0,30.36,2 
COMPS,ioos:station:USF.COMPS:C10:1,2017-08-02T17:05:00Z,27.1690,-82.9260,-1.0,30.35,2 
COMPS,ioos:station:USF.COMPS:C10:1,2017-08-02T17:35:00Z,27.1690,-82.9260,-1.0,30.34,2 
COMPS,ioos:station:USF.COMPS:C10:1,2017-08-02T18:05:00Z,27.1690,-82.9260,-1.0,30.34,2 
COMPS,ioos:station:USF.COMPS:C10:1,2017-08-02T18:35:00Z,27.1690,-82.9260,-1.0,30.35,2 
COMPS,ioos:station:USF.COMPS:C10:1,2017-08-02T19:05:00Z,27.1690,-82.9260,-1.0,30.36,2 
COMPS,ioos:station:USF.COMPS:C10:1,2017-08-02T19:35:00Z,27.1690,-82.9260,-1.0,30.36,2 
COMPS,ioos:station:USF.COMPS:C10:1,2017-08-02T20:05:00Z,27.1690,-82.9260,-1.0,30.33,2 
COMPS,ioos:station:USF.COMPS:C10:1,2017-08-02T20:35:00Z,27.1690,-82.9260,-1.0,30.32,2 
COMPS,ioos:station:USF.COMPS:C10:1,2017-08-02T21:05:00Z,27.1690,-82.9260,-1.0,30.32,2 
COMPS,ioos:station:USF.COMPS:C10:1,2017-08-02T21:35:00Z,27.1690,-82.9260,-1.0,30.33,2 
COMPS,ioos:station:USF.COMPS:C10:1,2017-08-02T22:05:00Z,27.1690,-82.9260,-1.0,30.32,2 
COMPS,ioos:station:USF.COMPS:C10:1,2017-08-02T22:35:00Z,27.1690,-82.9260,-1.0,30.31,2 
COMPS,ioos:station:USF.COMPS:C10:1,2017-08-02T23:05:00Z,27.1690,-82.9260,-1.0,30.31,2 
COMPS,ioos:station:USF.COMPS:C10:1,2017-08-02T23:35:00Z,27.1690,-82.9260,-1.0,30.31,2 
COMPS,ioos:station:USF.COMPS:C10:1,2017-08-03T00:05:00Z,27.1690,-82.9260,-1.0,30.3,2 
COMPS,ioos:station:USF.COMPS:C10:1,2017-08-03T00:35:00Z,27.1690,-82.9260,-1.0,30.29,2 
COMPS,ioos:station:USF.COMPS:C10:1,2017-08-03T01:05:00Z,27.1690,-82.9260,-1.0,30.3,2 
COMPS,ioos:station:USF.COMPS:C10:1,2017-08-03T01:35:00Z,27.1690,-82.9260,-1.0,30.29,2 
COMPS,ioos:station:USF.COMPS:C10:1,2017-08-03T02:05:00Z,27.1690,-82.9260,-1.0,30.3,2 
COMPS,ioos:station:USF.COMPS:C10:1,2017-08-03T02:35:00Z,27.1690,-82.9260,-1.0,30.28,2 
COMPS,ioos:station:USF.COMPS:C10:1,2017-08-03T03:05:00Z,27.1690,-82.9260,-1.0,30.27,2 
COMPS,ioos:station:USF.COMPS:C10:1,2017-08-03T03:35:00Z,27.1690,-82.9260,-1.0,30.27,2 
COMPS,ioos:station:USF.COMPS:C10:1,2017-08-03T04:05:00Z,27.1690,-82.9260,-1.0,30.28,2 
COMPS,ioos:station:USF.COMPS:C10:1,2017-08-03T04:35:00Z,27.1690,-82.9260,-1.0,30.28,2 
COMPS,ioos:station:USF.COMPS:C10:1,2017-08-03T05:05:00Z,27.1690,-82.9260,-1.0,30.27,2 
COMPS,ioos:station:USF.COMPS:C10:1,2017-08-03T05:35:00Z,27.1690,-82.9260,-1.0,30.27,2 
COMPS,ioos:station:USF.COMPS:C10:1,2017-08-03T06:05:00Z,27.1690,-82.9260,-1.0,30.25,2 
COMPS,ioos:station:USF.COMPS:C10:1,2017-08-03T06:35:00Z,27.1690,-82.9260,-1.0,30.26,2 
COMPS,ioos:station:USF.COMPS:C10:1,2017-08-03T07:05:00Z,27.1690,-82.9260,-1.0,30.25,2 
COMPS,ioos:station:USF.COMPS:C10:1,2017-08-03T07:35:00Z,27.1690,-82.9260,-1.0,30.25,2 
COMPS,ioos:station:USF.COMPS:C10:1,2017-08-03T08:05:00Z,27.1690,-82.9260,-1.0,30.24,2 
COMPS,ioos:station:USF.COMPS:C10:1,2017-08-03T08:35:00Z,27.1690,-82.9260,-1.0,30.25,2 
COMPS,ioos:station:USF.COMPS:C10:1,2017-08-03T09:05:00Z,27.1690,-82.9260,-1.0,30.25,2 
COMPS,ioos:station:USF.COMPS:C10:1,2017-08-03T09:35:00Z,27.1690,-82.9260,-1.0,30.23,2 
COMPS,ioos:station:USF.COMPS:C10:1,2017-08-03T10:05:00Z,27.1690,-82.9260,-1.0,30.24,2 
COMPS,ioos:station:USF.COMPS:C10:1,2017-08-03T10:35:00Z,27.1690,-82.9260,-1.0,30.23,2 
COMPS,ioos:station:USF.COMPS:C10:1,2017-08-03T11:05:00Z,27.1690,-82.9260,-1.0,30.23,2 
COMPS,ioos:station:USF.COMPS:C10:1,2017-08-03T11:35:00Z,27.1690,-82.9260,-1.0,30.22,2 
COMPS,ioos:station:USF.COMPS:C10:1,2017-08-03T12:05:00Z,27.1690,-82.9260,-1.0,30.22,2 
COMPS,ioos:station:USF.COMPS:C10:1,2017-08-03T12:35:00Z,27.1690,-82.9260,-1.0,30.22,2 
COMPS,ioos:station:USF.COMPS:C10:1,2017-08-03T13:05:00Z,27.1690,-82.9260,-1.0,30.22,2 
COMPS,ioos:station:USF.COMPS:C10:1,2017-08-03T13:35:00Z,27.1690,-82.9260,-1.0,30.23,2 
COMPS,ioos:station:USF.COMPS:C10:1,2017-08-03T14:05:00Z,27.1690,-82.9260,-1.0,30.24,2 
COMPS,ioos:station:USF.COMPS:C10:1,2017-08-03T14:35:00Z,27.1690,-82.9260,-1.0,30.26,2 
COMPS,ioos:station:USF.COMPS:C10:1,2017-08-03T15:05:00Z,27.1690,-82.9260,-1.0,30.27,2 
COMPS,ioos:station:USF.COMPS:C10:1,2017-08-03T15:35:00Z,27.1690,-82.9260,-1.0,30.3,2 
COMPS,ioos:station:USF.COMPS:C10:1,2017-08-03T16:05:00Z,27.1690,-82.9260,-1.0,30.32,2 
COMPS,ioos:station:USF.COMPS:C10:1,2017-08-03T16:35:00Z,27.1690,-82.9260,-1.0,30.37,2 
COMPS,ioos:station:USF.COMPS:C10:1,2017-08-03T17:05:00Z,27.1690,-82.9260,-1.0,30.42,2 
COMPS,ioos:station:USF.COMPS:C10:1,2017-08-03T17:35:00Z,27.1690,-82.9260,-1.0,30.44,2 
COMPS,ioos:station:USF.COMPS:C10:1,2017-08-03T18:05:00Z,27.1690,-82.9260,-1.0,30.51,2 
COMPS,ioos:station:USF.COMPS:C10:1,2017-08-03T18:35:00Z,27.1690,-82.9260,-1.0,30.6,2 
COMPS,ioos:station:USF.COMPS:C10:1,2017-08-03T19:05:00Z,27.1690,-82.9260,-1.0,30.65,2 
COMPS,ioos:station:USF.COMPS:C10:1,2017-08-03T19:35:00Z,27.1690,-82.9260,-1.0,30.71,2 
COMPS,ioos:station:USF.COMPS:C10:1,2017-08-03T20:05:00Z,27.1690,-82.9260,-1.0,30.67,2 
COMPS,ioos:station:USF.COMPS:C10:1,2017-08-03T20:35:00Z,27.1690,-82.9260,-1.0,30.55,2 
COMPS,ioos:station:USF.COMPS:C10:1,2017-08-03T21:05:00Z,27.1690,-82.9260,-1.0,30.48,2 
COMPS,ioos:station:USF.COMPS:C10:1,2017-08-03T21:35:00Z,27.1690,-82.9260,-1.0,30.49,2 
COMPS,ioos:station:USF.COMPS:C10:1,2017-08-03T22:05:00Z,27.1690,-82.9260,-1.0,30.45,2 
COMPS,ioos:station:USF.COMPS:C10:1,2017-08-03T22:35:00Z,27.1690,-82.9260,-1.0,30.43,2 
COMPS,ioos:station:USF.COMPS:C10:1,2017-08-03T23:05:00Z,27.1690,-82.9260,-1.0,30.43,2 
COMPS,ioos:station:USF.COMPS:C10:1,2017-08-03T23:35:00Z,27.1690,-82.9260,-1.0,30.41,2 
COMPS,ioos:station:USF.COMPS:C10:1,2017-08-04T00:05:00Z,27.1690,-82.9260,-1.0,30.4,2 
COMPS,ioos:station:USF.COMPS:C10:1,2017-08-04T00:35:00Z,27.1690,-82.9260,-1.0,30.39,2 
COMPS,ioos:station:USF.COMPS:C10:1,2017-08-04T01:05:00Z,27.1690,-82.9260,-1.0,30.38,2 
COMPS,ioos:station:USF.COMPS:C10:1,2017-08-04T01:35:00Z,27.1690,-82.9260,-1.0,30.37,2 
COMPS,ioos:station:USF.COMPS:C10:1,2017-08-04T02:05:00Z,27.1690,-82.9260,-1.0,30.36,2 
COMPS,ioos:station:USF.COMPS:C10:1,2017-08-04T02:35:00Z,27.1690,-82.9260,-1.0,30.35,2 
COMPS,ioos:station:USF.COMPS:C10:1,2017-08-04T03:05:00Z,27.1690,-82.9260,-1.0,30.36,2 
COMPS,ioos:station:USF.COMPS:C10:1,2017-08-04T03:35:00Z,27.1690,-82.9260,-1.0,30.33,2 
COMPS,ioos:station:USF.COMPS:C10:1,2017-08-04T04:05:00Z,27.1690,-82.9260,-1.0,30.33,2 
COMPS,ioos:station:USF.COMPS:C10:1,2017-08-04T04:35:00Z,27.1690,-82.9260,-1.0,30.33,2 
COMPS,ioos:station:USF.COMPS:C10:1,2017-08-04T05:05:00Z,27.1690,-82.9260,-1.0,30.32,2 
COMPS,ioos:station:USF.COMPS:C10:1,2017-08-04T05:35:00Z,27.1690,-82.9260,-1.0,30.32,2 
COMPS,ioos:station:USF.COMPS:C10:1,2017-08-04T06:05:00Z,27.1690,-82.9260,-1.0,30.31,2 
COMPS,ioos:station:USF.COMPS:C10:1,2017-08-04T06:35:00Z,27.1690,-82.9260,-1.0,30.32,2 
COMPS,ioos:station:USF.COMPS:C10:1,2017-08-04T07:05:00Z,27.1690,-82.9260,-1.0,30.29,2 
COMPS,ioos:station:USF.COMPS:C10:1,2017-08-04T07:35:00Z,27.1690,-82.9260,-1.0,30.28,2 
COMPS,ioos:station:USF.COMPS:C10:1,2017-08-04T08:05:00Z,27.1690,-82.9260,-1.0,30.28,2 
COMPS,ioos:station:USF.COMPS:C10:1,2017-08-04T08:35:00Z,27.1690,-82.9260,-1.0,30.29,2 
COMPS,ioos:station:USF.COMPS:C10:1,2017-08-04T09:05:00Z,27.1690,-82.9260,-1.0,30.27,2 
COMPS,ioos:station:USF.COMPS:C10:1,2017-08-04T09:35:00Z,27.1690,-82.9260,-1.0,30.28,2 
COMPS,ioos:station:USF.COMPS:C10:1,2017-08-04T10:05:00Z,27.1690,-82.9260,-1.0,30.26,2 
COMPS,ioos:station:USF.COMPS:C10:1,2017-08-04T10:35:00Z,27.1690,-82.9260,-1.0,30.27,2 
COMPS,ioos:station:USF.COMPS:C10:1,2017-08-04T11:05:00Z,27.1690,-82.9260,-1.0,30.25,2 
COMPS,ioos:station:USF.COMPS:C10:1,2017-08-04T11:35:00Z,27.1690,-82.9260,-1.0,30.24,2 
COMPS,ioos:station:USF.COMPS:C10:1,2017-08-04T12:05:00Z,27.1690,-82.9260,-1.0,30.24,2 
COMPS,ioos:station:USF.COMPS:C10:1,2017-08-04T12:35:00Z,27.1690,-82.9260,-1.0,30.24,2 
COMPS,ioos:station:USF.COMPS:C10:1,2017-08-04T13:05:00Z,27.1690,-82.9260,-1.0,30.23,2 
COMPS,ioos:station:USF.COMPS:C10:1,2017-08-04T13:35:00Z,27.1690,-82.9260,-1.0,30.24,2 
COMPS,ioos:station:USF.COMPS:C10:1,2017-08-04T14:05:00Z,27.1690,-82.9260,-1.0,30.25,2 
COMPS,ioos:station:USF.COMPS:C10:1,2017-08-04T14:35:00Z,27.1690,-82.9260,-1.0,30.26,2 
COMPS,ioos:station:USF.COMPS:C10:1,2017-08-04T15:05:00Z,27.1690,-82.9260,-1.0,30.29,2 
COMPS,ioos:station:USF.COMPS:C10:1,2017-08-04T15:35:00Z,27.1690,-82.9260,-1.0,30.31,2 
COMPS,ioos:station:USF.COMPS:C10:1,2017-08-04T16:05:00Z,27.1690,-82.9260,-1.0,30.33,2 
COMPS,ioos:station:USF.COMPS:C10:1,2017-08-04T16:35:00Z,27.1690,-82.9260,-1.0,30.38,2 
COMPS,ioos:station:USF.COMPS:C10:1,2017-08-04T17:05:00Z,27.1690,-82.9260,-1.0,30.44,2 
COMPS,ioos:station:USF.COMPS:C10:1,2017-08-04T17:35:00Z,27.1690,-82.9260,-1.0,30.48,2 
COMPS,ioos:station:USF.COMPS:C10:1,2017-08-04T18:05:00Z,27.1690,-82.9260,-1.0,30.54,2 
COMPS,ioos:station:USF.COMPS:C10:1,2017-08-04T18:35:00Z,27.1690,-82.9260,-1.0,30.59,2 
COMPS,ioos:station:USF.COMPS:C10:1,2017-08-04T19:05:00Z,27.1690,-82.9260,-1.0,30.61,2 
COMPS,ioos:station:USF.COMPS:C10:1,2017-08-04T19:35:00Z,27.1690,-82.9260,-1.0,30.63,2 
COMPS,ioos:station:USF.COMPS:C10:1,2017-08-04T20:05:00Z,27.1690,-82.9260,-1.0,30.66,2 
COMPS,ioos:station:USF.COMPS:C10:1,2017-08-04T20:35:00Z,27.1690,-82.9260,-1.0,30.68,2 
COMPS,ioos:station:USF.COMPS:C10:1,2017-08-04T21:05:00Z,27.1690,-82.9260,-1.0,30.65,2 
COMPS,ioos:station:USF.COMPS:C10:1,2017-08-04T21:35:00Z,27.1690,-82.9260,-1.0,30.64,2 
COMPS,ioos:station:USF.COMPS:C10:1,2017-08-04T22:05:00Z,27.1690,-82.9260,-1.0,30.66,2 
COMPS,ioos:station:USF.COMPS:C10:1,2017-08-04T22:35:00Z,27.1690,-82.9260,-1.0,30.63,2 
COMPS,ioos:station:USF.COMPS:C10:1,2017-08-04T23:05:00Z,27.1690,-82.9260,-1.0,30.61,2 
COMPS,ioos:station:USF.COMPS:C10:1,2017-08-04T23:35:00Z,27.1690,-82.9260,-1.0,30.57,2 
COMPS,ioos:station:USF.COMPS:C10:1,2017-08-05T00:05:00Z,27.1690,-82.9260,-1.0,30.52,2 
COMPS,ioos:station:USF.COMPS:C10:1,2017-08-05T00:35:00Z,27.1690,-82.9260,-1.0,30.54,2 
COMPS,ioos:station:USF.COMPS:C10:1,2017-08-05T01:05:00Z,27.1690,-82.9260,-1.0,30.48,2 
COMPS,ioos:station:USF.COMPS:C10:1,2017-08-05T01:35:00Z,27.1690,-82.9260,-1.0,30.51,2 
COMPS,ioos:station:USF.COMPS:C10:1,2017-08-05T02:05:00Z,27.1690,-82.9260,-1.0,30.48,2 
COMPS,ioos:station:USF.COMPS:C10:1,2017-08-05T02:35:00Z,27.1690,-82.9260,-1.0,30.45,2 
COMPS,ioos:station:USF.COMPS:C10:1,2017-08-05T03:05:00Z,27.1690,-82.9260,-1.0,30.45,2 
COMPS,ioos:station:USF.COMPS:C10:1,2017-08-05T03:35:00Z,27.1690,-82.9260,-1.0,30.42,2 
COMPS,ioos:station:USF.COMPS:C10:1,2017-08-05T04:05:00Z,27.1690,-82.9260,-1.0,30.44,2 
COMPS,ioos:station:USF.COMPS:C10:1,2017-08-05T04:35:00Z,27.1690,-82.9260,-1.0,30.42,2 
COMPS,ioos:station:USF.COMPS:C10:1,2017-08-05T05:05:00Z,27.1690,-82.9260,-1.0,30.43,2 
COMPS,ioos:station:USF.COMPS:C10:1,2017-08-05T05:35:00Z,27.1690,-82.9260,-1.0,30.45,2 
COMPS,ioos:station:USF.COMPS:C10:1,2017-08-05T06:05:00Z,27.1690,-82.9260,-1.0,30.44,2 
COMPS,ioos:station:USF.COMPS:C10:1,2017-08-05T06:35:00Z,27.1690,-82.9260,-1.0,30.42,2 
COMPS,ioos:station:USF.COMPS:C10:1,2017-08-05T07:05:00Z,27.1690,-82.9260,-1.0,30.41,2 
COMPS,ioos:station:USF.COMPS:C10:1,2017-08-05T07:35:00Z,27.1690,-82.9260,-1.0,30.39,2 
COMPS,ioos:station:USF.COMPS:C10:1,2017-08-05T08:05:00Z,27.1690,-82.9260,-1.0,30.39,2 
COMPS,ioos:station:USF.COMPS:C10:1,2017-08-05T08:35:00Z,27.1690,-82.9260,-1.0,30.37,2 
COMPS,ioos:station:USF.COMPS:C10:1,2017-08-05T09:05:00Z,27.1690,-82.9260,-1.0,30.38,2 
COMPS,ioos:station:USF.COMPS:C10:1,2017-08-05T09:35:00Z,27.1690,-82.9260,-1.0,30.39,2 
COMPS,ioos:station:USF.COMPS:C10:1,2017-08-05T10:05:00Z,27.1690,-82.9260,-1.0,30.38,2 
COMPS,ioos:station:USF.COMPS:C10:1,2017-08-05T10:35:00Z,27.1690,-82.9260,-1.0,30.38,2 
COMPS,ioos:station:USF.COMPS:C10:1,2017-08-05T11:05:00Z,27.1690,-82.9260,-1.0,30.38,2 
COMPS,ioos:station:USF.COMPS:C10:1,2017-08-05T11:35:00Z,27.1690,-82.9260,-1.0,30.37,2 
COMPS,ioos:station:USF.COMPS:C10:1,2017-08-05T12:05:00Z,27.1690,-82.9260,-1.0,30.34,2 
COMPS,ioos:station:USF.COMPS:C10:1,2017-08-05T12:35:00Z,27.1690,-82.9260,-1.0,30.37,2 
COMPS,ioos:station:USF.COMPS:C10:1,2017-08-05T13:05:00Z,27.1690,-82.9260,-1.0,30.38,2 
COMPS,ioos:station:USF.COMPS:C10:1,2017-08-05T13:35:00Z,27.1690,-82.9260,-1.0,30.39,2 
COMPS,ioos:station:USF.COMPS:C10:1,2017-08-05T14:05:00Z,27.1690,-82.9260,-1.0,30.41,2 
COMPS,ioos:station:USF.COMPS:C10:1,2017-08-05T14:35:00Z,27.1690,-82.9260,-1.0,30.42,2 
COMPS,ioos:station:USF.COMPS:C10:1,2017-08-05T15:05:00Z,27.1690,-82.9260,-1.0,30.44,2 
COMPS,ioos:station:USF.COMPS:C10:1,2017-08-05T15:35:00Z,27.1690,-82.9260,-1.0,30.48,2 
COMPS,ioos:station:USF.COMPS:C10:1,2017-08-05T16:05:00Z,27.1690,-82.9260,-1.0,30.51,2 
COMPS,ioos:station:USF.COMPS:C10:1,2017-08-05T16:35:00Z,27.1690,-82.9260,-1.0,30.59,2 
COMPS,ioos:station:USF.COMPS:C10:1,2017-08-05T17:05:00Z,27.1690,-82.9260,-1.0,30.69,2 
COMPS,ioos:station:USF.COMPS:C10:1,2017-08-05T17:35:00Z,27.1690,-82.9260,-1.0,30.79,2 
COMPS,ioos:station:USF.COMPS:C10:1,2017-08-05T18:05:00Z,27.1690,-82.9260,-1.0,30.88,2 
COMPS,ioos:station:USF.COMPS:C10:1,2017-08-05T18:35:00Z,27.1690,-82.9260,-1.0,31.14,2 
COMPS,ioos:station:USF.COMPS:C10:1,2017-08-05T19:05:00Z,27.1690,-82.9260,-1.0,31.34,2 
COMPS,ioos:station:USF.COMPS:C10:1,2017-08-05T19:35:00Z,27.1690,-82.9260,-1.0,31.43,2 
COMPS,ioos:station:USF.COMPS:C10:1,2017-08-05T20:05:00Z,27.1690,-82.9260,-1.0,31.37,2 
COMPS,ioos:station:USF.COMPS:C10:1,2017-08-05T20:35:00Z,27.1690,-82.9260,-1.0,31.3,2 
COMPS,ioos:station:USF.COMPS:C10:1,2017-08-05T21:05:00Z,27.1690,-82.9260,-1.0,31.17,2 
COMPS,ioos:station:USF.COMPS:C10:1,2017-08-05T21:35:00Z,27.1690,-82.9260,-1.0,31.06,2 
COMPS,ioos:station:USF.COMPS:C10:1,2017-08-05T22:05:00Z,27.1690,-82.9260,-1.0,31.06,2 
COMPS,ioos:station:USF.COMPS:C10:1,2017-08-05T22:35:00Z,27.1690,-82.9260,-1.0,31.0,2 
COMPS,ioos:station:USF.COMPS:C10:1,2017-08-05T23:05:00Z,27.1690,-82.9260,-1.0,31.02,2 
COMPS,ioos:station:USF.COMPS:C10:1,2017-08-05T23:35:00Z,27.1690,-82.9260,-1.0,31.15,2 
COMPS,ioos:station:USF.COMPS:C10:1,2017-08-06T00:05:00Z,27.1690,-82.9260,-1.0,31.05,2 
COMPS,ioos:station:USF.COMPS:C10:1,2017-08-06T00:35:00Z,27.1690,-82.9260,-1.0,30.94,2 
COMPS,ioos:station:USF.COMPS:C10:1,2017-08-06T01:05:00Z,27.1690,-82.9260,-1.0,30.84,2 
COMPS,ioos:station:USF.COMPS:C10:1,2017-08-06T01:35:00Z,27.1690,-82.9260,-1.0,30.78,2 
COMPS,ioos:station:USF.COMPS:C10:1,2017-08-06T02:05:00Z,27.1690,-82.9260,-1.0,30.73,2 
COMPS,ioos:station:USF.COMPS:C10:1,2017-08-06T02:35:00Z,27.1690,-82.9260,-1.0,30.69,2 
COMPS,ioos:station:USF.COMPS:C10:1,2017-08-06T03:05:00Z,27.1690,-82.9260,-1.0,30.66,2 
COMPS,ioos:station:USF.COMPS:C10:1,2017-08-06T03:35:00Z,27.1690,-82.9260,-1.0,30.63,2 
COMPS,ioos:station:USF.COMPS:C10:1,2017-08-06T04:05:00Z,27.1690,-82.9260,-1.0,30.59,2 
COMPS,ioos:station:USF.COMPS:C10:1,2017-08-06T04:35:00Z,27.1690,-82.9260,-1.0,30.56,2 
COMPS,ioos:station:USF.COMPS:C10:1,2017-08-06T05:05:00Z,27.1690,-82.9260,-1.0,30.57,2 
COMPS,ioos:station:USF.COMPS:C10:1,2017-08-06T05:35:00Z,27.1690,-82.9260,-1.0,30.54,2 
COMPS,ioos:station:USF.COMPS:C10:1,2017-08-06T06:05:00Z,27.1690,-82.9260,-1.0,30.54,2 
COMPS,ioos:station:USF.COMPS:C10:1,2017-08-06T06:35:00Z,27.1690,-82.9260,-1.0,30.55,2 
COMPS,ioos:station:USF.COMPS:C10:1,2017-08-06T07:05:00Z,27.1690,-82.9260,-1.0,30.53,2 
COMPS,ioos:station:USF.COMPS:C10:1,2017-08-06T07:35:00Z,27.1690,-82.9260,-1.0,30.52,2 
COMPS,ioos:station:USF.COMPS:C10:1,2017-08-06T08:05:00Z,27.1690,-82.9260,-1.0,30.51,2 
COMPS,ioos:station:USF.COMPS:C10:1,2017-08-06T08:35:00Z,27.1690,-82.9260,-1.0,30.5,2 
COMPS,ioos:station:USF.COMPS:C10:1,2017-08-06T09:05:00Z,27.1690,-82.9260,-1.0,30.48,2 
COMPS,ioos:station:USF.COMPS:C10:1,2017-08-06T09:35:00Z,27.1690,-82.9260,-1.0,30.45,2 
COMPS,ioos:station:USF.COMPS:C10:1,2017-08-06T10:05:00Z,27.1690,-82.9260,-1.0,30.42,2 
COMPS,ioos:station:USF.COMPS:C10:1,2017-08-06T10:35:00Z,27.1690,-82.9260,-1.0,30.4,2 
COMPS,ioos:station:USF.COMPS:C10:1,2017-08-06T11:05:00Z,27.1690,-82.9260,-1.0,30.38,2 
COMPS,ioos:station:USF.COMPS:C10:1,2017-08-06T11:35:00Z,27.1690,-82.9260,-1.0,30.37,2 
COMPS,ioos:station:USF.COMPS:C10:1,2017-08-06T12:05:00Z,27.1690,-82.9260,-1.0,30.34,2 
COMPS,ioos:station:USF.COMPS:C10:1,2017-08-06T12:35:00Z,27.1690,-82.9260,-1.0,30.35,2 
COMPS,ioos:station:USF.COMPS:C10:1,2017-08-06T13:05:00Z,27.1690,-82.9260,-1.0,30.35,2 
COMPS,ioos:station:USF.COMPS:C10:1,2017-08-06T13:35:00Z,27.1690,-82.9260,-1.0,30.37,2 
COMPS,ioos:station:USF.COMPS:C10:1,2017-08-06T14:05:00Z,27.1690,-82.9260,-1.0,30.37,2 
COMPS,ioos:station:USF.COMPS:C10:1,2017-08-06T14:35:00Z,27.1690,-82.9260,-1.0,30.38,2 
COMPS,ioos:station:USF.COMPS:C10:1,2017-08-06T15:05:00Z,27.1690,-82.9260,-1.0,30.39,2 
COMPS,ioos:station:USF.COMPS:C10:1,2017-08-06T15:35:00Z,27.1690,-82.9260,-1.0,30.4,2 
COMPS,ioos:station:USF.COMPS:C10:1,2017-08-06T16:05:00Z,27.1690,-82.9260,-1.0,30.43,2 
COMPS,ioos:station:USF.COMPS:C10:1,2017-08-06T16:35:00Z,27.1690,-82.9260,-1.0,30.47,2 
COMPS,ioos:station:USF.COMPS:C10:1,2017-08-06T17:05:00Z,27.1690,-82.9260,-1.0,30.51,2 
COMPS,ioos:station:USF.COMPS:C10:1,2017-08-06T17:35:00Z,27.1690,-82.9260,-1.0,30.56,2 
COMPS,ioos:station:USF.COMPS:C10:1,2017-08-06T18:05:00Z,27.1690,-82.9260,-1.0,30.59,2 